Вернуться в каталог

SL-8 DEB

АктивенLEO
NORAD 15756·DEBRIS·🇷🇺 Russia

Запущен Aug 3, 1983 с Plesetsk Cosmodrome

Loading…

Ближайшие Пролёты (ближайшие 24 часа)

TLE

СвежийSource: Space-Track

Эпоха: Sep 14, 2026, 06:23 UTC

1 15756U 83079D   26257.26645341  .00003408  00000-0  37950-3 0  9996
2 15756  74.0435 354.2153 0007252 119.4782 240.7122 14.87504974191569

Отслеживайте SL-8 DEB в реальном времени с AllMySat

Download on the App Store